owner,sensor,date,latitude,longitude,air_pressure(mBar),qcFlag 
COMPS,ioos:station:USF.COMPS:C10:1,2017-07-01T00:05:00Z,27.1690,-82.9260,1016.38,1111122 
COMPS,ioos:station:USF.COMPS:C10:1,2017-07-01T00:35:00Z,27.1690,-82.9260,1016.89,1111122 
COMPS,ioos:station:USF.COMPS:C10:1,2017-07-01T01:05:00Z,27.1690,-82.9260,1016.98,1111122 
COMPS,ioos:station:USF.COMPS:C10:1,2017-07-01T01:35:00Z,27.1690,-82.9260,1017.52,1111122 
COMPS,ioos:station:USF.COMPS:C10:1,2017-07-01T02:05:00Z,27.1690,-82.9260,1017.55,1111122 
COMPS,ioos:station:USF.COMPS:C10:1,2017-07-01T02:35:00Z,27.1690,-82.9260,1017.45,1111122 
COMPS,ioos:station:USF.COMPS:C10:1,2017-07-01T03:05:00Z,27.1690,-82.9260,1017.69,1111122 
COMPS,ioos:station:USF.COMPS:C10:1,2017-07-01T03:35:00Z,27.1690,-82.9260,1017.62,1111122 
COMPS,ioos:station:USF.COMPS:C10:1,2017-07-01T04:05:00Z,27.1690,-82.9260,1017.58,1111122 
COMPS,ioos:station:USF.COMPS:C10:1,2017-07-01T04:35:00Z,27.1690,-82.9260,1017.63,1111122 
COMPS,ioos:station:USF.COMPS:C10:1,2017-07-01T05:05:00Z,27.1690,-82.9260,1017.62,1111122 
COMPS,ioos:station:USF.COMPS:C10:1,2017-07-01T05:35:00Z,27.1690,-82.9260,1017.58,1111122 
COMPS,ioos:station:USF.COMPS:C10:1,2017-07-01T06:05:00Z,27.1690,-82.9260,1017.19,1111122 
COMPS,ioos:station:USF.COMPS:C10:1,2017-07-01T06:35:00Z,27.1690,-82.9260,1016.8,1111122 
COMPS,ioos:station:USF.COMPS:C10:1,2017-07-01T07:05:00Z,27.1690,-82.9260,1016.3,1111122 
COMPS,ioos:station:USF.COMPS:C10:1,2017-07-01T07:35:00Z,27.1690,-82.9260,1016.11,1111122 
COMPS,ioos:station:USF.COMPS:C10:1,2017-07-01T08:05:00Z,27.1690,-82.9260,1015.87,1111122 
COMPS,ioos:station:USF.COMPS:C10:1,2017-07-01T08:35:00Z,27.1690,-82.9260,1015.71,1111122 
COMPS,ioos:station:USF.COMPS:C10:1,2017-07-01T09:05:00Z,27.1690,-82.9260,1015.95,1111122 
COMPS,ioos:station:USF.COMPS:C10:1,2017-07-01T09:35:00Z,27.1690,-82.9260,1016.19,1111122 
COMPS,ioos:station:USF.COMPS:C10:1,2017-07-01T10:05:00Z,27.1690,-82.9260,1016.31,1111122 
COMPS,ioos:station:USF.COMPS:C10:1,2017-07-01T10:35:00Z,27.1690,-82.9260,1016.79,1111122 
COMPS,ioos:station:USF.COMPS:C10:1,2017-07-01T11:05:00Z,27.1690,-82.9260,1017.22,1111122 
COMPS,ioos:station:USF.COMPS:C10:1,2017-07-01T11:35:00Z,27.1690,-82.9260,1017.63,1111122 
COMPS,ioos:station:USF.COMPS:C10:1,2017-07-01T12:05:00Z,27.1690,-82.9260,1018.11,1111122 
COMPS,ioos:station:USF.COMPS:C10:1,2017-07-01T12:35:00Z,27.1690,-82.9260,1018.58,1111122 
COMPS,ioos:station:USF.COMPS:C10:1,2017-07-01T13:05:00Z,27.1690,-82.9260,1018.85,1111122 
COMPS,ioos:station:USF.COMPS:C10:1,2017-07-01T13:35:00Z,27.1690,-82.9260,1019.04,1111122 
COMPS,ioos:station:USF.COMPS:C10:1,2017-07-01T14:05:00Z,27.1690,-82.9260,1019.33,1111122 
COMPS,ioos:station:USF.COMPS:C10:1,2017-07-01T14:35:00Z,27.1690,-82.9260,1019.07,1111122 
COMPS,ioos:station:USF.COMPS:C10:1,2017-07-01T15:05:00Z,27.1690,-82.9260,1019.03,1111122 
COMPS,ioos:station:USF.COMPS:C10:1,2017-07-01T15:35:00Z,27.1690,-82.9260,1019.24,1111122 
COMPS,ioos:station:USF.COMPS:C10:1,2017-07-01T16:05:00Z,27.1690,-82.9260,1019.25,1111122 
COMPS,ioos:station:USF.COMPS:C10:1,2017-07-01T16:35:00Z,27.1690,-82.9260,1019.23,1111122 
COMPS,ioos:station:USF.COMPS:C10:1,2017-07-01T17:05:00Z,27.1690,-82.9260,1019.25,1111122 
COMPS,ioos:station:USF.COMPS:C10:1,2017-07-01T17:35:00Z,27.1690,-82.9260,1018.91,1111122 
COMPS,ioos:station:USF.COMPS:C10:1,2017-07-01T18:05:00Z,27.1690,-82.9260,1018.9,1111122 
COMPS,ioos:station:USF.COMPS:C10:1,2017-07-01T18:35:00Z,27.1690,-82.9260,1018.81,1111122 
COMPS,ioos:station:USF.COMPS:C10:1,2017-07-01T19:05:00Z,27.1690,-82.9260,1018.56,1111122 
COMPS,ioos:station:USF.COMPS:C10:1,2017-07-01T19:35:00Z,27.1690,-82.9260,1018.54,1111122 
COMPS,ioos:station:USF.COMPS:C10:1,2017-07-01T20:05:00Z,27.1690,-82.9260,1018.12,1111122 
COMPS,ioos:station:USF.COMPS:C10:1,2017-07-01T20:35:00Z,27.1690,-82.9260,1017.91,1111122 
COMPS,ioos:station:USF.COMPS:C10:1,2017-07-01T21:05:00Z,27.1690,-82.9260,1017.72,1111122 
COMPS,ioos:station:USF.COMPS:C10:1,2017-07-01T21:35:00Z,27.1690,-82.9260,1017.71,1111122 
COMPS,ioos:station:USF.COMPS:C10:1,2017-07-01T22:05:00Z,27.1690,-82.9260,1017.74,1111122 
COMPS,ioos:station:USF.COMPS:C10:1,2017-07-01T22:35:00Z,27.1690,-82.9260,1017.68,1111122 
COMPS,ioos:station:USF.COMPS:C10:1,2017-07-01T23:05:00Z,27.1690,-82.9260,1017.36,1111122 
COMPS,ioos:station:USF.COMPS:C10:1,2017-07-01T23:35:00Z,27.1690,-82.9260,1017.72,1111122 
COMPS,ioos:station:USF.COMPS:C10:1,2017-07-02T00:05:00Z,27.1690,-82.9260,1017.71,1111122 
COMPS,ioos:station:USF.COMPS:C10:1,2017-07-02T00:35:00Z,27.1690,-82.9260,1017.74,1111122 
COMPS,ioos:station:USF.COMPS:C10:1,2017-07-02T01:05:00Z,27.1690,-82.9260,1017.81,1111122 
COMPS,ioos:station:USF.COMPS:C10:1,2017-07-02T01:35:00Z,27.1690,-82.9260,1017.99,1111122 
COMPS,ioos:station:USF.COMPS:C10:1,2017-07-02T02:05:00Z,27.1690,-82.9260,1017.99,1111122 
COMPS,ioos:station:USF.COMPS:C10:1,2017-07-02T02:35:00Z,27.1690,-82.9260,1017.83,1111122 
COMPS,ioos:station:USF.COMPS:C10:1,2017-07-02T03:05:00Z,27.1690,-82.9260,1018.01,1111122 
COMPS,ioos:station:USF.COMPS:C10:1,2017-07-02T03:35:00Z,27.1690,-82.9260,1018.51,1111122 
COMPS,ioos:station:USF.COMPS:C10:1,2017-07-02T04:05:00Z,27.1690,-82.9260,1018.56,1111122 
COMPS,ioos:station:USF.COMPS:C10:1,2017-07-02T04:35:00Z,27.1690,-82.9260,1018.86,1111122 
COMPS,ioos:station:USF.COMPS:C10:1,2017-07-02T05:05:00Z,27.1690,-82.9260,1018.81,1111122 
COMPS,ioos:station:USF.COMPS:C10:1,2017-07-02T05:35:00Z,27.1690,-82.9260,1018.7,1111122 
COMPS,ioos:station:USF.COMPS:C10:1,2017-07-02T06:05:00Z,27.1690,-82.9260,1018.58,1111122 
COMPS,ioos:station:USF.COMPS:C10:1,2017-07-02T06:35:00Z,27.1690,-82.9260,1018.29,1111122 
COMPS,ioos:station:USF.COMPS:C10:1,2017-07-02T07:05:00Z,27.1690,-82.9260,1018.13,1111122 
COMPS,ioos:station:USF.COMPS:C10:1,2017-07-02T07:35:00Z,27.1690,-82.9260,1018.12,1111122 
COMPS,ioos:station:USF.COMPS:C10:1,2017-07-02T08:05:00Z,27.1690,-82.9260,1018.04,1111122 
COMPS,ioos:station:USF.COMPS:C10:1,2017-07-02T08:35:00Z,27.1690,-82.9260,1018.13,1111122 
COMPS,ioos:station:USF.COMPS:C10:1,2017-07-02T09:05:00Z,27.1690,-82.9260,1018.1,1111122 
COMPS,ioos:station:USF.COMPS:C10:1,2017-07-02T09:35:00Z,27.1690,-82.9260,1018.05,1111122 
COMPS,ioos:station:USF.COMPS:C10:1,2017-07-02T10:05:00Z,27.1690,-82.9260,1018.14,1111122 
COMPS,ioos:station:USF.COMPS:C10:1,2017-07-02T10:35:00Z,27.1690,-82.9260,1018.18,1111122 
COMPS,ioos:station:USF.COMPS:C10:1,2017-07-02T11:05:00Z,27.1690,-82.9260,1018.51,1111122 
COMPS,ioos:station:USF.COMPS:C10:1,2017-07-02T11:35:00Z,27.1690,-82.9260,1018.74,1111122 
COMPS,ioos:station:USF.COMPS:C10:1,2017-07-02T12:05:00Z,27.1690,-82.9260,1018.65,1111122 
COMPS,ioos:station:USF.COMPS:C10:1,2017-07-02T12:35:00Z,27.1690,-82.9260,1018.79,1111122 
COMPS,ioos:station:USF.COMPS:C10:1,2017-07-02T13:05:00Z,27.1690,-82.9260,1018.98,1111122 
COMPS,ioos:station:USF.COMPS:C10:1,2017-07-02T13:35:00Z,27.1690,-82.9260,1019.13,1111122 
COMPS,ioos:station:USF.COMPS:C10:1,2017-07-02T14:05:00Z,27.1690,-82.9260,1019.35,1111122 
COMPS,ioos:station:USF.COMPS:C10:1,2017-07-02T14:35:00Z,27.1690,-82.9260,1019.65,1111122 
COMPS,ioos:station:USF.COMPS:C10:1,2017-07-02T15:05:00Z,27.1690,-82.9260,1019.63,1111122 
COMPS,ioos:station:USF.COMPS:C10:1,2017-07-02T15:35:00Z,27.1690,-82.9260,1019.6,1111122 
COMPS,ioos:station:USF.COMPS:C10:1,2017-07-02T16:05:00Z,27.1690,-82.9260,1019.6,1111122 
COMPS,ioos:station:USF.COMPS:C10:1,2017-07-02T16:35:00Z,27.1690,-82.9260,1019.5,1111122 
COMPS,ioos:station:USF.COMPS:C10:1,2017-07-02T17:05:00Z,27.1690,-82.9260,1019.46,1111122 
COMPS,ioos:station:USF.COMPS:C10:1,2017-07-02T17:35:00Z,27.1690,-82.9260,1019.32,1111122 
COMPS,ioos:station:USF.COMPS:C10:1,2017-07-02T18:05:00Z,27.1690,-82.9260,1019.06,1111122 
COMPS,ioos:station:USF.COMPS:C10:1,2017-07-02T18:35:00Z,27.1690,-82.9260,1018.94,1111122 
COMPS,ioos:station:USF.COMPS:C10:1,2017-07-02T19:05:00Z,27.1690,-82.9260,1018.78,1111122 
COMPS,ioos:station:USF.COMPS:C10:1,2017-07-02T19:35:00Z,27.1690,-82.9260,1018.31,1111122 
COMPS,ioos:station:USF.COMPS:C10:1,2017-07-02T20:05:00Z,27.1690,-82.9260,1018.3,1111122 
COMPS,ioos:station:USF.COMPS:C10:1,2017-07-02T20:35:00Z,27.1690,-82.9260,1017.89,1111122 
COMPS,ioos:station:USF.COMPS:C10:1,2017-07-02T21:05:00Z,27.1690,-82.9260,1017.38,1111122 
COMPS,ioos:station:USF.COMPS:C10:1,2017-07-02T21:35:00Z,27.1690,-82.9260,1017.38,1111122 
COMPS,ioos:station:USF.COMPS:C10:1,2017-07-02T22:05:00Z,27.1690,-82.9260,1017.48,1111122 
COMPS,ioos:station:USF.COMPS:C10:1,2017-07-02T22:35:00Z,27.1690,-82.9260,1017.19,1111122 
COMPS,ioos:station:USF.COMPS:C10:1,2017-07-02T23:05:00Z,27.1690,-82.9260,1017.4,1111122 
COMPS,ioos:station:USF.COMPS:C10:1,2017-07-02T23:35:00Z,27.1690,-82.9260,1017.46,1111122 
COMPS,ioos:station:USF.COMPS:C10:1,2017-07-03T00:05:00Z,27.1690,-82.9260,1017.82,1111122 
COMPS,ioos:station:USF.COMPS:C10:1,2017-07-03T00:35:00Z,27.1690,-82.9260,1017.97,1111122 
COMPS,ioos:station:USF.COMPS:C10:1,2017-07-03T01:05:00Z,27.1690,-82.9260,1017.95,1111122 
COMPS,ioos:station:USF.COMPS:C10:1,2017-07-03T01:35:00Z,27.1690,-82.9260,1017.97,1111122 
COMPS,ioos:station:USF.COMPS:C10:1,2017-07-03T02:05:00Z,27.1690,-82.9260,1018.34,1111122 
COMPS,ioos:station:USF.COMPS:C10:1,2017-07-03T02:35:00Z,27.1690,-82.9260,1018.16,1111122 
COMPS,ioos:station:USF.COMPS:C10:1,2017-07-03T03:05:00Z,27.1690,-82.9260,1018.12,1111122 
COMPS,ioos:station:USF.COMPS:C10:1,2017-07-03T03:35:00Z,27.1690,-82.9260,1018.12,1111122 
COMPS,ioos:station:USF.COMPS:C10:1,2017-07-03T04:05:00Z,27.1690,-82.9260,1017.99,1111122 
COMPS,ioos:station:USF.COMPS:C10:1,2017-07-03T04:35:00Z,27.1690,-82.9260,1017.92,1111122 
COMPS,ioos:station:USF.COMPS:C10:1,2017-07-03T05:05:00Z,27.1690,-82.9260,1017.66,1111122 
COMPS,ioos:station:USF.COMPS:C10:1,2017-07-03T05:35:00Z,27.1690,-82.9260,1017.38,1111122 
COMPS,ioos:station:USF.COMPS:C10:1,2017-07-03T06:05:00Z,27.1690,-82.9260,1017.07,1111122 
COMPS,ioos:station:USF.COMPS:C10:1,2017-07-03T06:35:00Z,27.1690,-82.9260,1016.69,1111122 
COMPS,ioos:station:USF.COMPS:C10:1,2017-07-03T07:05:00Z,27.1690,-82.9260,1016.43,1111122 
COMPS,ioos:station:USF.COMPS:C10:1,2017-07-03T07:35:00Z,27.1690,-82.9260,1016.05,1111122 
COMPS,ioos:station:USF.COMPS:C10:1,2017-07-03T08:05:00Z,27.1690,-82.9260,1015.71,1111122 
COMPS,ioos:station:USF.COMPS:C10:1,2017-07-03T08:35:00Z,27.1690,-82.9260,1015.71,1111122 
COMPS,ioos:station:USF.COMPS:C10:1,2017-07-03T09:05:00Z,27.1690,-82.9260,1015.75,1111122 
COMPS,ioos:station:USF.COMPS:C10:1,2017-07-03T09:35:00Z,27.1690,-82.9260,1015.71,1111122 
COMPS,ioos:station:USF.COMPS:C10:1,2017-07-03T10:05:00Z,27.1690,-82.9260,1015.8,1111122 
COMPS,ioos:station:USF.COMPS:C10:1,2017-07-03T10:35:00Z,27.1690,-82.9260,1016.1,1111122 
COMPS,ioos:station:USF.COMPS:C10:1,2017-07-03T11:05:00Z,27.1690,-82.9260,1016.5,1111122 
COMPS,ioos:station:USF.COMPS:C10:1,2017-07-03T11:35:00Z,27.1690,-82.9260,1016.64,1111122 
COMPS,ioos:station:USF.COMPS:C10:1,2017-07-03T12:05:00Z,27.1690,-82.9260,1016.87,1111122 
COMPS,ioos:station:USF.COMPS:C10:1,2017-07-03T12:35:00Z,27.1690,-82.9260,1017.38,1111122 
COMPS,ioos:station:USF.COMPS:C10:1,2017-07-03T13:05:00Z,27.1690,-82.9260,1017.8,1111122 
COMPS,ioos:station:USF.COMPS:C10:1,2017-07-03T13:35:00Z,27.1690,-82.9260,1018.04,1111122 
COMPS,ioos:station:USF.COMPS:C10:1,2017-07-03T14:05:00Z,27.1690,-82.9260,1018.06,1111122 
COMPS,ioos:station:USF.COMPS:C10:1,2017-07-03T14:35:00Z,27.1690,-82.9260,1018.18,1111122 
COMPS,ioos:station:USF.COMPS:C10:1,2017-07-03T15:05:00Z,27.1690,-82.9260,1018.29,1111122 
COMPS,ioos:station:USF.COMPS:C10:1,2017-07-03T15:35:00Z,27.1690,-82.9260,1018.28,1111122 
COMPS,ioos:station:USF.COMPS:C10:1,2017-07-03T16:05:00Z,27.1690,-82.9260,1018.52,1111122 
COMPS,ioos:station:USF.COMPS:C10:1,2017-07-03T16:35:00Z,27.1690,-82.9260,1018.52,1111122 
COMPS,ioos:station:USF.COMPS:C10:1,2017-07-03T17:05:00Z,27.1690,-82.9260,1018.46,1111122 
COMPS,ioos:station:USF.COMPS:C10:1,2017-07-03T17:35:00Z,27.1690,-82.9260,1018.0,1111122 
COMPS,ioos:station:USF.COMPS:C10:1,2017-07-03T18:05:00Z,27.1690,-82.9260,1017.82,1111122 
COMPS,ioos:station:USF.COMPS:C10:1,2017-07-03T18:35:00Z,27.1690,-82.9260,1017.77,1111122 
COMPS,ioos:station:USF.COMPS:C10:1,2017-07-03T19:05:00Z,27.1690,-82.9260,1017.44,1111122 
COMPS,ioos:station:USF.COMPS:C10:1,2017-07-03T19:35:00Z,27.1690,-82.9260,1017.15,1111122 
COMPS,ioos:station:USF.COMPS:C10:1,2017-07-03T20:05:00Z,27.1690,-82.9260,1016.78,1111122 
COMPS,ioos:station:USF.COMPS:C10:1,2017-07-03T20:35:00Z,27.1690,-82.9260,1016.7,1111122 
COMPS,ioos:station:USF.COMPS:C10:1,2017-07-03T21:05:00Z,27.1690,-82.9260,1016.38,1111122 
COMPS,ioos:station:USF.COMPS:C10:1,2017-07-03T21:35:00Z,27.1690,-82.9260,1016.26,1111122 
COMPS,ioos:station:USF.COMPS:C10:1,2017-07-03T22:05:00Z,27.1690,-82.9260,1016.26,1111122 
COMPS,ioos:station:USF.COMPS:C10:1,2017-07-03T22:35:00Z,27.1690,-82.9260,1016.29,1111122 
COMPS,ioos:station:USF.COMPS:C10:1,2017-07-03T23:05:00Z,27.1690,-82.9260,1015.96,1111122 
COMPS,ioos:station:USF.COMPS:C10:1,2017-07-03T23:35:00Z,27.1690,-82.9260,1016.06,1111122 
COMPS,ioos:station:USF.COMPS:C10:1,2017-07-04T00:05:00Z,27.1690,-82.9260,1016.19,1111122 
COMPS,ioos:station:USF.COMPS:C10:1,2017-07-04T00:35:00Z,27.1690,-82.9260,1016.51,1111122 
COMPS,ioos:station:USF.COMPS:C10:1,2017-07-04T01:05:00Z,27.1690,-82.9260,1016.76,1111122 
COMPS,ioos:station:USF.COMPS:C10:1,2017-07-04T01:35:00Z,27.1690,-82.9260,1016.74,1111122 
COMPS,ioos:station:USF.COMPS:C10:1,2017-07-04T02:05:00Z,27.1690,-82.9260,1017.07,1111122 
COMPS,ioos:station:USF.COMPS:C10:1,2017-07-04T02:35:00Z,27.1690,-82.9260,1017.25,1111122 
COMPS,ioos:station:USF.COMPS:C10:1,2017-07-04T03:05:00Z,27.1690,-82.9260,1017.44,1111122 
COMPS,ioos:station:USF.COMPS:C10:1,2017-07-04T03:35:00Z,27.1690,-82.9260,1017.56,1111122 
COMPS,ioos:station:USF.COMPS:C10:1,2017-07-04T04:05:00Z,27.1690,-82.9260,1017.58,1111122 
COMPS,ioos:station:USF.COMPS:C10:1,2017-07-04T04:35:00Z,27.1690,-82.9260,1017.59,1111122 
COMPS,ioos:station:USF.COMPS:C10:1,2017-07-04T05:05:00Z,27.1690,-82.9260,1017.29,1111122 
COMPS,ioos:station:USF.COMPS:C10:1,2017-07-04T05:35:00Z,27.1690,-82.9260,1016.9,1111122 
COMPS,ioos:station:USF.COMPS:C10:1,2017-07-04T06:05:00Z,27.1690,-82.9260,1016.55,1111122 
COMPS,ioos:station:USF.COMPS:C10:1,2017-07-04T06:35:00Z,27.1690,-82.9260,1016.04,1111122 
COMPS,ioos:station:USF.COMPS:C10:1,2017-07-04T07:05:00Z,27.1690,-82.9260,1015.69,1111122 
COMPS,ioos:station:USF.COMPS:C10:1,2017-07-04T07:35:00Z,27.1690,-82.9260,1015.36,1111122 
COMPS,ioos:station:USF.COMPS:C10:1,2017-07-04T08:05:00Z,27.1690,-82.9260,1015.3,1111122 
COMPS,ioos:station:USF.COMPS:C10:1,2017-07-04T08:35:00Z,27.1690,-82.9260,1015.3,1111122 
COMPS,ioos:station:USF.COMPS:C10:1,2017-07-04T09:05:00Z,27.1690,-82.9260,1015.44,1111122 
COMPS,ioos:station:USF.COMPS:C10:1,2017-07-04T09:35:00Z,27.1690,-82.9260,1015.58,1111122 
COMPS,ioos:station:USF.COMPS:C10:1,2017-07-04T10:05:00Z,27.1690,-82.9260,1015.57,1111122 
COMPS,ioos:station:USF.COMPS:C10:1,2017-07-04T10:35:00Z,27.1690,-82.9260,1015.73,1111122 
COMPS,ioos:station:USF.COMPS:C10:1,2017-07-04T11:05:00Z,27.1690,-82.9260,1016.08,1111122 
COMPS,ioos:station:USF.COMPS:C10:1,2017-07-04T11:35:00Z,27.1690,-82.9260,1016.32,1111122 
COMPS,ioos:station:USF.COMPS:C10:1,2017-07-04T12:05:00Z,27.1690,-82.9260,1016.64,1111122 
COMPS,ioos:station:USF.COMPS:C10:1,2017-07-04T12:35:00Z,27.1690,-82.9260,1017.01,1111122 
COMPS,ioos:station:USF.COMPS:C10:1,2017-07-04T13:05:00Z,27.1690,-82.9260,1017.44,1111122 
COMPS,ioos:station:USF.COMPS:C10:1,2017-07-04T13:35:00Z,27.1690,-82.9260,1017.72,1111122 
COMPS,ioos:station:USF.COMPS:C10:1,2017-07-04T14:05:00Z,27.1690,-82.9260,1017.76,1111122 
COMPS,ioos:station:USF.COMPS:C10:1,2017-07-04T14:35:00Z,27.1690,-82.9260,1017.85,1111122 
COMPS,ioos:station:USF.COMPS:C10:1,2017-07-04T15:05:00Z,27.1690,-82.9260,1017.72,1111122 
COMPS,ioos:station:USF.COMPS:C10:1,2017-07-04T15:35:00Z,27.1690,-82.9260,1017.95,1111122 
COMPS,ioos:station:USF.COMPS:C10:1,2017-07-04T16:05:00Z,27.1690,-82.9260,1018.04,1111122 
COMPS,ioos:station:USF.COMPS:C10:1,2017-07-04T16:35:00Z,27.1690,-82.9260,1017.93,1111122 
COMPS,ioos:station:USF.COMPS:C10:1,2017-07-04T17:05:00Z,27.1690,-82.9260,1017.65,1111122 
COMPS,ioos:station:USF.COMPS:C10:1,2017-07-04T17:35:00Z,27.1690,-82.9260,1017.65,1111122 
COMPS,ioos:station:USF.COMPS:C10:1,2017-07-04T18:05:00Z,27.1690,-82.9260,1017.6,1111122 
COMPS,ioos:station:USF.COMPS:C10:1,2017-07-04T18:35:00Z,27.1690,-82.9260,1017.5,1111122 
COMPS,ioos:station:USF.COMPS:C10:1,2017-07-04T19:05:00Z,27.1690,-82.9260,1017.32,1111122 
COMPS,ioos:station:USF.COMPS:C10:1,2017-07-04T19:35:00Z,27.1690,-82.9260,1017.25,1111122 
COMPS,ioos:station:USF.COMPS:C10:1,2017-07-04T20:05:00Z,27.1690,-82.9260,1017.18,1111122 
COMPS,ioos:station:USF.COMPS:C10:1,2017-07-04T20:35:00Z,27.1690,-82.9260,1016.63,1111122 
COMPS,ioos:station:USF.COMPS:C10:1,2017-07-04T21:05:00Z,27.1690,-82.9260,1016.28,1111122 
COMPS,ioos:station:USF.COMPS:C10:1,2017-07-04T21:35:00Z,27.1690,-82.9260,1015.97,1111122 
COMPS,ioos:station:USF.COMPS:C10:1,2017-07-04T22:05:00Z,27.1690,-82.9260,1015.88,1111122 
COMPS,ioos:station:USF.COMPS:C10:1,2017-07-04T22:35:00Z,27.1690,-82.9260,1015.57,1111122 
COMPS,ioos:station:USF.COMPS:C10:1,2017-07-04T23:05:00Z,27.1690,-82.9260,1015.44,1111122 
COMPS,ioos:station:USF.COMPS:C10:1,2017-07-04T23:35:00Z,27.1690,-82.9260,1015.46,1111122 
COMPS,ioos:station:USF.COMPS:C10:1,2017-07-05T00:05:00Z,27.1690,-82.9260,1016.03,1111122 
COMPS,ioos:station:USF.COMPS:C10:1,2017-07-05T00:35:00Z,27.1690,-82.9260,1016.02,1111122 
COMPS,ioos:station:USF.COMPS:C10:1,2017-07-05T01:05:00Z,27.1690,-82.9260,1016.24,1111122 
COMPS,ioos:station:USF.COMPS:C10:1,2017-07-05T01:35:00Z,27.1690,-82.9260,1016.78,1111122 
COMPS,ioos:station:USF.COMPS:C10:1,2017-07-05T02:05:00Z,27.1690,-82.9260,1017.49,1111122 
COMPS,ioos:station:USF.COMPS:C10:1,2017-07-05T02:35:00Z,27.1690,-82.9260,1017.58,1111122 
COMPS,ioos:station:USF.COMPS:C10:1,2017-07-05T03:05:00Z,27.1690,-82.9260,1017.72,1111122 
COMPS,ioos:station:USF.COMPS:C10:1,2017-07-05T03:35:00Z,27.1690,-82.9260,1017.93,1111122 
COMPS,ioos:station:USF.COMPS:C10:1,2017-07-05T04:05:00Z,27.1690,-82.9260,1017.86,1111122 
COMPS,ioos:station:USF.COMPS:C10:1,2017-07-05T04:35:00Z,27.1690,-82.9260,1017.77,1111122 
COMPS,ioos:station:USF.COMPS:C10:1,2017-07-05T05:05:00Z,27.1690,-82.9260,1017.53,1111122 
COMPS,ioos:station:USF.COMPS:C10:1,2017-07-05T05:35:00Z,27.1690,-82.9260,1017.32,1111122 
COMPS,ioos:station:USF.COMPS:C10:1,2017-07-05T06:05:00Z,27.1690,-82.9260,1016.99,1111122 
COMPS,ioos:station:USF.COMPS:C10:1,2017-07-05T06:35:00Z,27.1690,-82.9260,1016.92,1111122 
COMPS,ioos:station:USF.COMPS:C10:1,2017-07-05T07:05:00Z,27.1690,-82.9260,1016.83,1111122 
COMPS,ioos:station:USF.COMPS:C10:1,2017-07-05T07:35:00Z,27.1690,-82.9260,1016.74,1111122 
COMPS,ioos:station:USF.COMPS:C10:1,2017-07-05T08:05:00Z,27.1690,-82.9260,1016.64,1111122 
COMPS,ioos:station:USF.COMPS:C10:1,2017-07-05T08:35:00Z,27.1690,-82.9260,1016.64,1111122 
COMPS,ioos:station:USF.COMPS:C10:1,2017-07-05T09:05:00Z,27.1690,-82.9260,1016.85,1111122 
COMPS,ioos:station:USF.COMPS:C10:1,2017-07-05T09:35:00Z,27.1690,-82.9260,1017.05,1111122 
COMPS,ioos:station:USF.COMPS:C10:1,2017-07-05T10:05:00Z,27.1690,-82.9260,1017.25,1111122 
COMPS,ioos:station:USF.COMPS:C10:1,2017-07-05T10:35:00Z,27.1690,-82.9260,1017.45,1111122 
COMPS,ioos:station:USF.COMPS:C10:1,2017-07-05T11:05:00Z,27.1690,-82.9260,1017.58,1111122 
COMPS,ioos:station:USF.COMPS:C10:1,2017-07-05T11:35:00Z,27.1690,-82.9260,1017.85,1111122 
COMPS,ioos:station:USF.COMPS:C10:1,2017-07-05T12:05:00Z,27.1690,-82.9260,1017.85,1111122 
COMPS,ioos:station:USF.COMPS:C10:1,2017-07-05T12:35:00Z,27.1690,-82.9260,1018.13,1111122 
COMPS,ioos:station:USF.COMPS:C10:1,2017-07-05T13:05:00Z,27.1690,-82.9260,1018.3,1111122 
COMPS,ioos:station:USF.COMPS:C10:1,2017-07-05T13:35:00Z,27.1690,-82.9260,1018.34,1111122 
COMPS,ioos:station:USF.COMPS:C10:1,2017-07-05T14:05:00Z,27.1690,-82.9260,1018.35,1111122 
COMPS,ioos:station:USF.COMPS:C10:1,2017-07-05T14:35:00Z,27.1690,-82.9260,1018.56,1111122 
COMPS,ioos:station:USF.COMPS:C10:1,2017-07-05T15:05:00Z,27.1690,-82.9260,1018.86,1111122 
COMPS,ioos:station:USF.COMPS:C10:1,2017-07-05T15:35:00Z,27.1690,-82.9260,1018.6,1111122 
COMPS,ioos:station:USF.COMPS:C10:1,2017-07-05T16:05:00Z,27.1690,-82.9260,1018.52,1111122 
COMPS,ioos:station:USF.COMPS:C10:1,2017-07-05T16:35:00Z,27.1690,-82.9260,1018.52,1111122 
COMPS,ioos:station:USF.COMPS:C10:1,2017-07-05T17:05:00Z,27.1690,-82.9260,1018.52,1111122 
COMPS,ioos:station:USF.COMPS:C10:1,2017-07-05T17:35:00Z,27.1690,-82.9260,1018.52,1111122 
COMPS,ioos:station:USF.COMPS:C10:1,2017-07-05T18:05:00Z,27.1690,-82.9260,1018.52,1111122 
COMPS,ioos:station:USF.COMPS:C10:1,2017-07-05T18:35:00Z,27.1690,-82.9260,1018.52,1111122 
COMPS,ioos:station:USF.COMPS:C10:1,2017-07-05T19:05:00Z,27.1690,-82.9260,1018.35,1111122 
COMPS,ioos:station:USF.COMPS:C10:1,2017-07-05T19:35:00Z,27.1690,-82.9260,1017.99,1111122 
COMPS,ioos:station:USF.COMPS:C10:1,2017-07-05T20:05:00Z,27.1690,-82.9260,1017.65,1111122 
COMPS,ioos:station:USF.COMPS:C10:1,2017-07-05T20:35:00Z,27.1690,-82.9260,1017.5,1111122 
COMPS,ioos:station:USF.COMPS:C10:1,2017-07-05T21:05:00Z,27.1690,-82.9260,1017.18,1111122 
COMPS,ioos:station:USF.COMPS:C10:1,2017-07-05T21:35:00Z,27.1690,-82.9260,1016.64,1111122 
COMPS,ioos:station:USF.COMPS:C10:1,2017-07-05T22:05:00Z,27.1690,-82.9260,1016.89,1111122 
COMPS,ioos:station:USF.COMPS:C10:1,2017-07-05T22:35:00Z,27.1690,-82.9260,1017.06,1111122 
COMPS,ioos:station:USF.COMPS:C10:1,2017-07-05T23:05:00Z,27.1690,-82.9260,1016.95,1111122 
COMPS,ioos:station:USF.COMPS:C10:1,2017-07-05T23:35:00Z,27.1690,-82.9260,1017.05,1111122 
COMPS,ioos:station:USF.COMPS:C10:1,2017-07-06T00:05:00Z,27.1690,-82.9260,1017.3,1111122 
COMPS,ioos:station:USF.COMPS:C10:1,2017-07-06T00:35:00Z,27.1690,-82.9260,1017.41,1111122 
COMPS,ioos:station:USF.COMPS:C10:1,2017-07-06T01:05:00Z,27.1690,-82.9260,1017.68,1111122 
COMPS,ioos:station:USF.COMPS:C10:1,2017-07-06T01:35:00Z,27.1690,-82.9260,1017.99,1111122 
COMPS,ioos:station:USF.COMPS:C10:1,2017-07-06T02:05:00Z,27.1690,-82.9260,1018.3,1111122 
COMPS,ioos:station:USF.COMPS:C10:1,2017-07-06T02:35:00Z,27.1690,-82.9260,1018.46,1111122 
COMPS,ioos:station:USF.COMPS:C10:1,2017-07-06T03:05:00Z,27.1690,-82.9260,1018.48,1111122 
COMPS,ioos:station:USF.COMPS:C10:1,2017-07-06T03:35:00Z,27.1690,-82.9260,1018.25,1111122 
COMPS,ioos:station:USF.COMPS:C10:1,2017-07-06T04:05:00Z,27.1690,-82.9260,1018.11,1111122 
COMPS,ioos:station:USF.COMPS:C10:1,2017-07-06T04:35:00Z,27.1690,-82.9260,1018.34,1111122 
COMPS,ioos:station:USF.COMPS:C10:1,2017-07-06T05:05:00Z,27.1690,-82.9260,1018.12,1111122 
COMPS,ioos:station:USF.COMPS:C10:1,2017-07-06T05:35:00Z,27.1690,-82.9260,1017.97,1111122 
COMPS,ioos:station:USF.COMPS:C10:1,2017-07-06T06:05:00Z,27.1690,-82.9260,1017.8,1111122 
COMPS,ioos:station:USF.COMPS:C10:1,2017-07-06T06:35:00Z,27.1690,-82.9260,1017.54,1111122 
COMPS,ioos:station:USF.COMPS:C10:1,2017-07-06T07:05:00Z,27.1690,-82.9260,1017.05,1111122 
COMPS,ioos:station:USF.COMPS:C10:1,2017-07-06T07:35:00Z,27.1690,-82.9260,1016.9,1111122 
COMPS,ioos:station:USF.COMPS:C10:1,2017-07-06T08:05:00Z,27.1690,-82.9260,1016.61,1111122 
COMPS,ioos:station:USF.COMPS:C10:1,2017-07-06T08:35:00Z,27.1690,-82.9260,1016.55,1111122 
COMPS,ioos:station:USF.COMPS:C10:1,2017-07-06T09:05:00Z,27.1690,-82.9260,1016.18,1111122 
COMPS,ioos:station:USF.COMPS:C10:1,2017-07-06T09:35:00Z,27.1690,-82.9260,1016.41,1111122 
COMPS,ioos:station:USF.COMPS:C10:1,2017-07-06T10:05:00Z,27.1690,-82.9260,1016.75,1111122 
COMPS,ioos:station:USF.COMPS:C10:1,2017-07-06T10:35:00Z,27.1690,-82.9260,1017.06,1111122 
COMPS,ioos:station:USF.COMPS:C10:1,2017-07-06T11:05:00Z,27.1690,-82.9260,1017.38,1111122 
COMPS,ioos:station:USF.COMPS:C10:1,2017-07-06T11:35:00Z,27.1690,-82.9260,1017.75,1111122 
COMPS,ioos:station:USF.COMPS:C10:1,2017-07-06T12:05:00Z,27.1690,-82.9260,1018.0,1111122 
COMPS,ioos:station:USF.COMPS:C10:1,2017-07-06T12:35:00Z,27.1690,-82.9260,1018.39,1111122 